Dewpoint
-11 -8 -8 -9 -9 -10 -9 -9 -10 -11 -8 -7 -8 -9 -11 -19 -19 -17 -17 -15 -14 -13 -12 -11 -11 -9 -8 -5 -3 -3 -2 -2 -2 -2 -2 -2 -3 -3 -3 -2 -2 -2 -2 -3
-8 -9 -11 -9 -10 -9 -10 -11 -11 -12 -8 -8 -7 -8 -9 -18 -19 -18 -16 -15 -14 -13 -11 -11 -11 -8 -6 -3 -2 -2 -2 -2 -2 -2 -2 -2 -2 -2 -2 -2 -2 -2 -2 -2
-10 -12 -11 -9 -11 -9 -9 -10 -10 -11 -7 -8 -7 -6 -15 -18 -19 -17 -16 -15 -14 -12 -10 -11 -10 -7 -4 -1 -2 -2 -2 -2 -2 -2 -2 -2 -2 -2 -2 -2 -2 -2 -2 -2
-9 -13 -11 -10 -11 -11 -8 -10 -11 -8 -8 -4 -7 -4 -12 -17 -18 -17 -15 -14 -13 -11 -10 -11 -8 -6 -3 -1 -1 -1 -2 -2 -2 -2 -2 -2 -2 -2 -2 -1 -1 -1 -1 -1
-10 -11 -11 -11 -12 -11 -12 -12 -11 -9 -9 -6 -8 -8 -15 -17 -15 -15 -15 -14 -13 -11 -11 -10 -8 -5 -3 -2 -1 -2 -2 -2 -2 -2 -2 -2 -2 -2 -2 -2 -2 -1 -1 -1
-11 -14 -14 -13 -12 -13 -15 -13 -9 -4 -5 -7 -10 -12 -11 -15 -16 -14 -14 -13 -12 -10 -12 -10 -7 -5 -3 -2 -2 -2 -3 -3 -2 -2 -2 -2 -2 -2 -2 -2 -2 -2 -2 -1
-10 -11 -12 -13 -15 -14 -14 -12 -9 -12 -8 -12 -10 -11 -15 -17 -16 -14 -13 -13 -11 -10 -12 -10 -7 -4 -3 -2 -2 -2 -3 -3 -3 -2 -2 -2 -2 -2 -2 -2 -2 -2 -2 -1
-8 -5 -12 -13 -15 -15 -14 -13 -12 -15 -10 -10 -10 -9 -14 -17 -14 -14 -13 -12 -10 -12 -11 -10 -6 -4 -3 -3 -3 -3 -4 -3 -3 -3 -2 -2 -2 -2 -2 -3 -2 -2 -1 -1
-10 -9 -13 -13 -14 -17 -17 -16 -16 -10 -9 -8 -9 -16 -16 -14 -14 -13 -12 -11 -9 -12 -11 -9 -5 -3 -3 -3 -4 -4 -4 -4 -3 -3 -2 -2 -2 -2 -2 -3 -2 -2 -1 -1
-12 -9 -12 -12 -15 -15 -18 -17 -17 -10 -11 -11 -12 -13 -12 -12 -12 -12 -12 -10 -10 -12 -11 -9 -5 -3 -3 -3 -4 -4 -4 -3 -3 -4 -2 -2 -2 -2 -2 -2 -1 -1 -1 -1
-12 -11 -10 -12 -13 -13 -14 -15 -13 -11 -11 -11 -7 -10 -13 -12 -13 -12 -11 -9 -11 -11 -11 -8 -4 -3 -3 -3 -4 -4 -4 -4 -4 -4 -3 -3 -2 -2 -2 -1 -1 -1 -1 -2
-8 -10 -10 -11 -13 -15 -15 -14 -11 -8 -14 -7 -6 -6 -13 -13 -12 -11 -10 -8 -11 -11 -11 -6 -4 -3 -3 -3 -4 -4 -4 -4 -4 -5 -3 -3 -3 -2 -2 -2 -1 -1 -1 -1
-8 -10 -6 -8 -9 -11 -11 -13 -13 -9 -8 -7 -9 -12 -15 -12 -12 -10 -9 -9 -11 -11 -10 -5 -4 -3 -3 -4 -4 -5 -4 -4 -4 -5 -4 -3 -3 -3 -3 -2 -2 -1 -1 -1
-9 -12 -8 -4 -8 -10 -10 -10 -11 -12 -9 -10 -9 -12 -14 -11 -10 -9 -8 -10 -11 -11 -10 -4 -4 -3 -4 -4 -4 -4 -4 -4 -4 -4 -5 -4 -3 -3 -3 -3 -2 -2 -2 -1
-9 -11 -13 -13 -13 -13 -13 -13 -10 -10 -13 -10 -15 -12 -12 -11 -10 -8 -9 -10 -10 -11 -9 -4 -3 -4 -4 -4 -5 -4 -4 -3 -4 -4 -5 -4 -4 -4 -4 -3 -3 -2 -2 -2
-11 -8 -13 -11 -13 -14 -14 -14 -12 -12 -13 -14 -14 -12 -13 -9 -7 -9 -11 -10 -10 -10 -8 -4 -4 -4 -4 -4 -5 -4 -4 -4 -6 -5 -6 -5 -4 -4 -5 -4 -4 -4 -4 -3
-12 -8 -7 -6 -11 -13 -9 -13 -14 -15 -15 -14 -11 -12 -10 -7 -7 -8 -10 -10 -10 -10 -7 -4 -4 -4 -4 -4 -4 -4 -4 -5 -7 -7 -7 -7 -5 -5 -5 -4 -4 -4 -4 -4
-9 -7 -5 -6 -9 -5 -10 -15 -15 -14 -12 -12 -11 -10 -8 -7 -9 -13 -10 -10 -10 -9 -5 -4 -3 -4 -4 -4 -4 -4 -4 -6 -7 -8 -7 -9 -6 -6 -6 -5 -5 -5 -4 -4
-10 -4 -5 -5 -7 -9 -14 -15 -16 -16 -13 -11 -10 -8 -7 -9 -12 -15 -11 -13 -10 -6 -4 -4 -3 -3 -4 -4 -4 -3 -4 -7 -8 -9 -7 -9 -9 -9 -9 -8 -7 -6 -6 -5
-9 -6 -4 -7 -10 -8 -11 -13 -13 -12 -9 -10 -8 -7 -6 -9 -8 -10 -12 -12 -6 -6 -4 -4 -3 -3 -4 -4 -4 -3 -4 -7 -8 -9 -8 -9 -10 -8 -9 -9 -10 -9 -9 -8
-6 -6 -5 -3 -7 -8 -11 -13 -11 -18 -18 -9 -8 -7 -9 -8 -9 -10 -15 -9 -5 -5 -4 -3 -2 -3 -4 -4 -4 -4 -4 -7 -9 -10 -11 -10 -10 -8 -7 -7 -8 -7 -5 -5
-7 -5 -5 -7 -9 -7 -14 -10 -13 -14 -10 -9 -8 -9 -9 -10 -11 -15 -16 -7 -5 -4 -4 -3 -2 -3 -4 -4 -3 -3 -3 -7 -11 -12 -13 -12 -10 -10 -7 -5 -7 -7 -5 -4
-9 -6 -3 -5 -7 -12 -13 -13 -11 -12 -13 -9 -9 -11 -10 -12 -14 -16 -13 -6 -5 -5 -5 -4 -2 -3 -4 -3 -4 -3 -4 -8 -11 -13 -13 -13 -13 -9 -5 -4 -4 -5 -5 -4
-13 -11 -10 -12 -13 -13 -13 -12 -13 -14 -12 -10 -12 -11 -12 -13 -16 -19 -10 -6 -4 -5 -5 -4 -3 -3 -3 -4 -3 -3 -3 -9 -11 -13 -14 -14 -14 -12 -8 -5 -4 -4 -4 -5
-13 -13 -12 -13 -13 -13 -12 -13 -13 -13 -10 -12 -12 -11 -12 -16 -19 -17 -8 -6 -5 -5 -5 -4 -3 -2 -3 -4 -3 -4 -6 -11 -12 -13 -14 -15 -15 -14 -12 -11 -6 -4 -3 -4
-14 -14 -13 -12 -14 -14 -14 -13 -12 -12 -13 -13 -11 -11 -14 -19 -20 -14 -7 -5 -5 -5 -5 -4 -3 -2 -3 -4 -4 -5 -9 -12 -13 -14 -15 -15 -16 -15 -13 -12 -11 -9 -4 -5
Wind_Speed
11 11 6 5 3 6 3 3 4 1 5 6 7 7 7 12 19 24 26 33 32 33 34 36 38 41 36 39 45 43 42 41 42 40 40 38 36 35 34 35 35 33 32 27
7 7 8 5 10 5 3 4 4 2 7 7 5 5 2 13 12 15 26 31 32 34 38 41 41 42 39 41 44 44 41 40 39 37 36 34 35 34 33 32 32 32 32 32
8 5 10 5 6 10 4 6 3 6 6 8 9 3 5 6 16 23 32 32 34 36 38 43 44 42 45 45 45 41 42 40 36 35 36 36 36 36 35 33 32 30 29 29
7 9 5 4 4 5 4 3 8 6 6 4 4 2 3 7 8 20 26 36 36 38 39 42 42 43 45 44 43 41 43 42 40 37 39 38 41 41 37 36 34 32 29 27
1 7 8 5 5 4 7 13 3 4 5 4 3 4 6 5 10 17 28 30 35 37 38 41 40 42 41 43 43 45 44 42 43 44 42 41 41 40 41 38 37 34 32 30
3 4 4 3 6 3 15 5 6 4 3 2 4 4 3 6 9 14 24 31 34 37 42 41 38 43 44 43 43 45 45 42 44 43 42 42 42 40 39 39 37 35 33 31
1 3 5 7 6 8 10 6 4 4 5 4 1 6 4 6 7 13 23 30 36 36 39 41 43 46 47 44 45 45 46 43 43 46 44 44 45 41 40 39 36 33 31 29
4 4 8 12 4 3 5 4 4 4 3 5 4 4 3 2 14 22 25 30 33 38 39 38 41 41 41 44 43 43 45 42 42 44 42 43 43 41 37 35 32 30 28 29
2 3 2 4 4 3 5 5 1 1 2 2 3 4 2 21 21 24 28 31 33 39 41 41 43 43 41 46 42 43 43 39 40 45 41 43 45 47 46 40 34 27 23 27
0 4 3 4 5 9 6 2 2 4 4 5 4 1 4 14 15 21 28 34 36 40 41 41 41 44 43 41 40 43 40 42 44 47 44 42 45 46 40 38 36 27 23 22
1 2 2 4 5 3 6 4 5 5 3 3 3 3 2 8 12 17 28 31 36 39 41 41 43 41 41 39 42 44 42 43 43 46 40 41 43 44 38 33 30 29 27 21
2 4 3 1 1 6 3 3 3 4 5 1 3 5 2 9 24 25 28 31 36 36 38 36 41 39 42 41 47 43 42 41 42 45 40 38 39 42 39 35 30 25 27 23
1 3 3 1 3 1 4 2 4 4 3 3 3 5 7 27 23 27 27 31 37 37 39 37 42 41 42 42 44 41 41 42 43 44 39 39 38 42 39 36 32 27 22 20
0 3 4 5 4 3 2 3 2 4 3 3 5 8 9 14 14 28 29 32 36 36 38 40 41 40 39 41 43 39 43 41 43 43 41 38 38 36 39 36 34 33 31 27
3 3 2 1 2 2 2 3 5 4 4 4 5 5 5 11 17 25 28 32 35 36 37 41 42 41 43 41 41 42 40 41 41 42 42 36 36 32 33 37 38 36 38 40
3 2 2 1 3 3 3 4 6 4 3 5 5 6 9 23 21 28 29 32 33 35 35 40 42 38 41 40 39 41 39 41 39 41 40 34 33 33 31 33 38 39 41 41
2 3 3 0 2 1 5 4 2 1 1 4 3 4 12 17 22 25 26 32 33 36 34 40 39 35 39 38 36 39 37 37 37 40 40 33 31 33 32 33 35 38 41 42
4 3 2 2 2 2 1 2 2 2 2 1 2 6 13 17 25 13 25 33 33 35 31 40 33 34 36 34 34 36 34 34 35 37 40 35 31 30 30 29 32 36 37 40
4 4 3 3 2 5 1 3 4 4 4 2 2 9 14 21 20 6 33 33 33 30 28 35 27 30 33 33 33 35 32 31 32 35 38 33 32 31 29 30 30 31 35 37
6 7 4 3 3 4 2 4 5 7 3 3 1 5 11 18 7 9 32 32 30 27 35 29 26 27 32 32 31 33 31 30 31 30 33 31 30 31 31 31 32 33 32 31
3 3 4 2 2 6 3 10 9 4 4 4 1 5 10 5 10 21 28 31 28 23 35 26 24 27 30 31 31 32 31 29 26 25 28 30 27 30 32 31 29 31 35 37
5 5 3 3 3 4 13 8 5 5 6 3 1 6 9 13 17 22 26 29 28 25 28 25 25 26 29 29 30 30 30 25 23 24 25 27 30 29 31 36 33 33 32 30
1 6 4 7 4 2 20 3 8 6 7 4 2 6 9 13 19 23 25 27 26 29 26 23 24 24 27 29 28 29 28 23 21 23 24 25 25 25 31 29 34 37 35 29
3 5 2 2 3 11 13 10 8 6 6 4 3 5 9 13 17 21 24 27 25 26 28 22 24 23 27 28 27 26 26 22 21 22 24 25 25 24 25 29 32 34 36 32
4 10 5 3 3 9 11 11 12 9 7 4 3 5 9 12 16 19 23 24 23 25 26 20 22 22 23 26 26 24 25 22 22 22 23 24 24 24 23 25 28 28 30 30
13 8 5 5 18 7 15 19 15 12 8 5 3 4 8 11 15 17 22 23 21 25 28 18 18 19 20 25 26 23 23 22 22 23 24 23 22 22 22 22 23 25 25 26
Wind_Direction
34 55 26 15 333 252 227 116 60 322 149 93 112 130 166 69 38 24 12 8 357 351 348 348 348 345 347 347 342 351 350 345 343 341 339 335 331 326 322 318 313 310 308 294
42 39 324 208 12 8 47 119 33 354 113 93 141 142 162 52 24 15 9 0 353 350 350 349 349 350 351 350 355 358 353 347 348 346 339 337 333 329 326 324 320 314 309 303
90 299 310 22 13 14 353 115 153 208 99 52 128 53 44 342 5 7 6 358 355 351 348 350 349 351 351 1 2 360 359 357 357 354 351 348 343 337 332 327 320 318 314 307
73 353 9 4 18 19 316 160 304 217 150 202 198 274 359 340 330 358 354 358 352 350 351 350 350 349 352 360 1 360 3 0 0 360 354 352 344 335 338 333 328 323 319 312
339 355 5 6 328 311 259 318 269 158 147 112 149 82 306 324 344 353 349 346 350 349 351 349 349 347 348 357 359 358 0 4 360 355 353 350 342 335 330 332 330 326 323 319
92 41 44 273 301 314 321 7 34 55 90 56 328 143 324 358 326 337 346 345 348 350 350 349 348 348 352 356 358 358 357 1 358 355 356 350 348 339 334 334 329 323 320 316
86 1 327 10 352 354 7 37 358 354 5 233 156 59 217 295 324 332 336 343 348 352 349 348 350 350 355 352 353 354 355 357 358 355 355 350 347 345 345 339 328 327 323 327
25 9 8 346 45 297 0 64 109 273 293 295 349 144 200 243 350 349 348 348 349 351 349 349 349 350 350 355 352 351 356 358 359 3 1 358 353 354 348 344 340 331 332 337
57 37 325 7 12 16 333 32 273 87 353 11 290 341 341 359 350 348 348 351 352 351 349 349 350 350 352 357 351 353 355 360 1 3 1 3 2 359 356 354 354 345 347 350
235 96 356 341 11 29 81 317 9 17 32 317 306 309 281 337 338 347 348 350 350 348 349 349 351 353 355 353 352 354 358 360 356 0 358 7 2 1 -0 8 14 7 359 2
36 87 321 39 18 317 351 14 31 108 97 180 303 266 29 291 342 343 342 345 349 347 347 348 348 353 356 353 356 1 0 359 357 355 3 10 8 5 6 11 19 22 11 7
354 114 76 63 9 86 71 91 99 109 282 120 154 279 125 326 360 345 339 346 347 346 346 348 348 351 358 356 0 3 4 1 2 359 7 9 10 5 10 15 19 22 25 10
320 30 81 325 326 37 71 45 95 97 75 219 126 278 342 350 346 345 343 346 345 345 348 348 352 357 358 356 359 6 7 7 9 5 8 11 15 11 14 20 22 21 23 23
18 81 137 183 215 149 164 172 122 126 105 212 231 290 329 331 340 340 341 347 346 347 349 349 351 357 358 357 2 7 7 9 11 9 12 11 17 18 21 25 32 35 38 32
88 108 111 103 163 173 238 191 187 169 181 153 275 280 304 325 330 331 342 346 346 349 350 350 351 358 3 358 5 7 10 10 11 11 13 13 18 21 27 30 36 39 43 40
19 155 117 142 232 242 287 259 210 219 182 263 292 305 338 332 339 339 350 346 346 348 350 349 353 358 5 359 4 5 10 11 16 16 14 15 21 23 27 33 36 42 43 43
82 119 89 169 212 344 306 217 184 130 223 220 264 259 325 332 338 332 347 347 346 347 348 348 357 5 4 358 3 5 8 11 21 20 21 19 25 27 33 40 41 42 42 43
119 99 85 164 41 0 218 140 129 143 172 214 313 321 333 329 328 329 355 352 348 349 347 347 358 6 6 357 8 7 10 15 24 23 24 22 27 30 33 42 43 44 42 41
59 113 62 119 182 298 239 193 167 168 231 201 306 327 333 342 338 340 357 -0 351 355 348 350 4 7 7 1 9 7 11 21 25 25 28 27 32 34 36 41 45 46 45 45
64 64 110 71 119 205 186 158 139 126 273 166 308 326 344 350 6 318 351 357 360 358 347 356 11 8 10 5 13 9 15 24 26 27 31 33 38 42 44 46 49 52 50 46
23 1 129 155 208 284 208 147 143 69 249 173 308 354 350 346 330 335 353 357 3 0 352 5 13 16 13 8 13 14 17 26 27 29 35 39 39 48 48 46 46 52 54 49
177 144 198 82 57 314 155 129 171 170 138 148 26 357 350 351 351 356 360 360 2 357 360 11 15 16 17 14 15 14 21 26 29 32 36 39 40 43 50 43 42 40 44 36
262 184 182 175 214 146 172 161 157 156 153 150 41 5 359 357 356 359 357 0 7 354 1 10 18 14 20 16 16 19 22 26 30 33 34 33 33 33 44 43 35 39 40 43
246 188 159 67 188 169 173 160 163 154 144 129 44 17 2 360 357 1 359 2 3 0 4 8 18 16 19 17 18 20 21 30 33 35 34 33 31 32 42 48 46 39 37 44
190 156 167 252 177 168 191 188 172 161 154 121 86 18 4 1 5 5 0 3 360 2 6 8 17 18 17 19 20 24 28 30 37 38 36 37 34 37 42 44 54 45 44 41
189 178 170 216 183 169 192 180 173 168 154 130 97 25 6 4 9 5 4 2 360 0 4 8 20 20 16 20 21 28 36 35 37 40 38 37 38 41 47 52 54 62 61 50
Height
1557 1565 1579 1575 1572 1569 1568 1571 1575 1573 1578 1585 1593 1596 1595 1596 1593 1591 1589 1582 1579 1572 1566 1560 1552 1545 1535 1527 1517 1507 1497 1491 1484 1476 1469 1463 1458 1453 1448 1443 1439 1436 1433 1430
1568 1580 1575 1571 1570 1568 1565 1571 1579 1575 1579 1585 1596 1596 1595 1596 1596 1594 1589 1582 1576 1570 1563 1556 1548 1540 1532 1523 1513 1504 1496 1489 1482 1475 1468 1461 1453 1447 1441 1436 1432 1428 1424 1421
1578 1583 1574 1572 1574 1573 1571 1575 1578 1580 1583 1586 1593 1600 1601 1599 1596 1592 1587 1583 1577 1570 1561 1553 1544 1536 1528 1520 1510 1503 1496 1488 1480 1473 1464 1456 1449 1442 1435 1429 1425 1421 1417 1413
1582 1582 1578 1576 1576 1578 1577 1570 1571 1572 1579 1587 1585 1601 1603 1603 1597 1592 1588 1580 1574 1568 1561 1553 1544 1536 1526 1518 1512 1504 1496 1487 1479 1470 1461 1453 1445 1437 1430 1423 1417 1412 1409 1405
1589 1586 1583 1582 1582 1577 1574 1567 1566 1566 1574 1576 1585 1606 1613 1603 1599 1592 1587 1582 1575 1569 1562 1553 1544 1537 1528 1518 1510 1502 1494 1485 1477 1467 1459 1450 1442 1434 1424 1418 1411 1405 1401 1397
1587 1586 1587 1586 1580 1576 1570 1567 1567 1572 1577 1587 1588 1591 1619 1610 1605 1596 1589 1581 1574 1566 1558 1552 1545 1535 1525 1515 1507 1498 1491 1483 1474 1466 1457 1448 1440 1429 1420 1412 1405 1398 1393 1388
1591 1592 1589 1587 1584 1578 1577 1581 1590 1578 1589 1586 1593 1605 1618 1607 1603 1599 1591 1582 1575 1568 1559 1550 1540 1529 1520 1512 1504 1497 1489 1480 1472 1464 1455 1446 1438 1428 1418 1409 1401 1393 1387 1381
1599 1592 1596 1593 1595 1595 1592 1598 1609 1590 1600 1603 1594 1612 1611 1605 1603 1598 1591 1583 1576 1568 1561 1553 1543 1533 1523 1515 1505 1497 1488 1479 1472 1462 1454 1446 1436 1425 1416 1407 1397 1389 1382 1376
1601 1603 1599 1597 1596 1596 1596 1608 1603 1607 1612 1620 1609 1607 1604 1600 1599 1595 1587 1580 1573 1566 1558 1549 1541 1533 1523 1513 1506 1498 1488 1480 1472 1462 1453 1443 1433 1423 1413 1402 1393 1385 1379 1373
1600 1604 1600 1600 1598 1599 1602 1605 1608 1620 1638 1621 1612 1612 1618 1608 1601 1593 1585 1579 1572 1565 1557 1550 1541 1531 1523 1515 1507 1498 1489 1480 1471 1462 1453 1443 1434 1424 1413 1401 1391 1384 1378 1373
1598 1601 1605 1604 1614 1615 1613 1615 1619 1625 1632 1649 1643 1612 1611 1612 1603 1594 1589 1583 1577 1567 1559 1550 1542 1533 1526 1517 1507 1497 1488 1479 1470 1461 1452 1443 1434 1425 1414 1403 1395 1387 1380 1375
1601 1607 1621 1616 1614 1613 1614 1619 1627 1642 1636 1644 1653 1626 1610 1607 1601 1598 1591 1586 1578 1571 1562 1553 1543 1533 1524 1514 1505 1497 1489 1481 1473 1464 1454 1445 1436 1426 1416 1406 1397 1389 1382 1378
1601 1608 1622 1616 1618 1615 1618 1619 1622 1632 1642 1646 1659 1623 1606 1603 1602 1598 1592 1584 1577 1569 1560 1553 1542 1532 1523 1515 1507 1500 1491 1482 1473 1465 1455 1446 1437 1428 1419 1410 1401 1393 1386 1380
1601 1608 1611 1622 1609 1617 1618 1619 1621 1629 1654 1651 1635 1619 1611 1608 1604 1597 1590 1586 1578 1570 1561 1553 1543 1535 1526 1518 1510 1501 1493 1483 1475 1466 1457 1449 1440 1432 1424 1415 1406 1397 1390 1384
1601 1609 1607 1611 1611 1613 1613 1614 1620 1636 1625 1641 1619 1620 1613 1609 1604 1596 1590 1584 1576 1568 1561 1553 1544 1535 1527 1519 1511 1503 1495 1486 1478 1469 1460 1452 1445 1437 1429 1421 1412 1404 1395 1389
1602 1612 1607 1612 1613 1613 1613 1612 1615 1617 1618 1619 1616 1617 1611 1606 1602 1596 1592 1585 1577 1569 1561 1554 1545 1537 1529 1521 1514 1506 1497 1489 1482 1473 1464 1456 1449 1441 1433 1426 1419 1411 1402 1394
1606 1611 1619 1611 1613 1613 1617 1610 1611 1614 1615 1616 1617 1614 1609 1603 1601 1597 1592 1586 1578 1570 1563 1554 1546 1539 1531 1525 1517 1508 1500 1494 1485 1477 1468 1460 1453 1445 1438 1432 1424 1417 1409 1402
1607 1613 1624 1630 1617 1618 1607 1609 1610 1612 1614 1614 1613 1611 1608 1605 1599 1595 1591 1583 1577 1571 1564 1556 1548 1540 1533 1527 1519 1511 1504 1497 1488 1481 1472 1465 1457 1450 1444 1437 1430 1423 1416 1408
1604 1613 1633 1628 1624 1611 1608 1608 1611 1612 1613 1612 1612 1609 1607 1603 1596 1592 1590 1586 1581 1571 1566 1557 1550 1543 1535 1528 1520 1513 1507 1500 1492 1485 1477 1470 1463 1456 1450 1442 1435 1429 1423 1416
1607 1610 1619 1641 1630 1608 1600 1606 1607 1609 1614 1611 1610 1609 1608 1602 1601 1594 1590 1583 1578 1573 1566 1557 1551 1545 1537 1529 1522 1516 1509 1502 1495 1489 1483 1477 1470 1463 1456 1450 1442 1437 1431 1425
1622 1627 1628 1630 1637 1610 1601 1604 1607 1613 1615 1608 1608 1607 1605 1604 1603 1596 1589 1584 1577 1571 1565 1558 1552 1545 1538 1531 1524 1518 1512 1506 1501 1495 1489 1482 1476 1470 1464 1457 1450 1444 1438 1432
1606 1620 1628 1635 1638 1599 1599 1605 1608 1604 1605 1605 1606 1605 1604 1602 1597 1592 1587 1581 1575 1569 1561 1557 1552 1546 1540 1533 1527 1521 1514 1511 1505 1499 1493 1487 1482 1476 1469 1463 1456 1450 1443 1439
1607 1597 1605 1604 1599 1594 1595 1597 1598 1600 1602 1604 1604 1604 1602 1598 1594 1591 1585 1579 1575 1572 1564 1558 1552 1548 1541 1534 1529 1523 1518 1514 1508 1503 1497 1492 1487 1482 1474 1467 1462 1455 1450 1445
1592 1591 1596 1596 1592 1592 1594 1596 1598 1599 1600 1602 1603 1602 1599 1597 1594 1589 1585 1581 1576 1570 1565 1559 1553 1549 1543 1536 1531 1526 1521 1517 1511 1506 1501 1495 1491 1486 1480 1472 1467 1463 1458 1453
1587 1588 1590 1591 1590 1593 1593 1593 1596 1598 1599 1601 1601 1600 1598 1596 1592 1588 1584 1580 1574 1570 1564 1559 1554 1550 1545 1539 1533 1528 1523 1519 1514 1509 1504 1499 1495 1490 1485 1479 1473 1470 1467 1462
1574 1575 1581 1577 1572 1579 1580 1589 1593 1595 1597 1599 1599 1599 1597 1594 1591 1588 1585 1580 1575 1570 1564 1558 1555 1551 1547 1541 1535 1530 1525 1521 1517 1512 1507 1503 1500 1495 1490 1486 1481 1475 1473 1469